PRIVATE WETTERSTATION BILLIGHEIM-ALLFELD                       ZURCK
Wetterdaten: Freitag, 24.06.2016
Datum Zeit Temp. A. Temp. A. min Temp. A. max Feuchte A. Luftdruck Regen Wind Richtung Richtung Sonnenschein ET Solar Taupunkt Windchill Windben Empfang
24.06.2016 00:00 23,3 C 23,3 C 23,8 C 72 % 1015,6 hPa 0,0 l/m 0,0 km/h (0 Bft) N 0 0 min 0,025 mm 0 W/m 18,0 C 23,3 C 0,0 km/h (0 Bft) 100 %
24.06.2016 00:10 22,9 C 22,9 C 23,3 C 73 % 1015,6 hPa 0,0 l/m 0,0 km/h (0 Bft) N-NW 337 0 min 0,000 mm 0 W/m 17,8 C 22,9 C 1,6 km/h (1 Bft) 100 %
24.06.2016 00:20 22,5 C 22,5 C 22,9 C 77 % 1015,5 hPa 0,0 l/m 0,0 km/h (0 Bft) N-NW 337 0 min 0,000 mm 0 W/m 18,3 C 22,5 C 1,6 km/h (1 Bft) 100 %
24.06.2016 00:30 21,8 C 21,8 C 22,4 C 79 % 1015,6 hPa 0,0 l/m 0,0 km/h (0 Bft) N-NW 337 0 min 0,000 mm 0 W/m 18,0 C 21,8 C 1,6 km/h (1 Bft) 100 %
24.06.2016 00:40 21,3 C 21,3 C 21,8 C 81 % 1015,6 hPa 0,0 l/m 0,0 km/h (0 Bft) N 360 0 min 0,000 mm 0 W/m 17,9 C 21,3 C 1,6 km/h (1 Bft) 100 %
24.06.2016 00:50 21,0 C 21,0 C 21,3 C 83 % 1015,6 hPa 0,0 l/m 0,0 km/h (0 Bft) N 0 0 min 0,000 mm 0 W/m 18,0 C 21,0 C 0,0 km/h (0 Bft) 89 %
24.06.2016 01:00 20,7 C 20,7 C 21,0 C 84 % 1015,6 hPa 0,0 l/m 0,0 km/h (0 Bft) N 0 0 min 0,025 mm 0 W/m 17,9 C 20,7 C 0,0 km/h (0 Bft) 100 %
24.06.2016 01:10 20,3 C 20,3 C 20,7 C 85 % 1015,6 hPa 0,0 l/m 0,0 km/h (0 Bft) N 360 0 min 0,000 mm 0 W/m 17,7 C 20,3 C 1,6 km/h (1 Bft) 100 %
24.06.2016 01:20 20,0 C 20,0 C 20,3 C 85 % 1015,7 hPa 0,0 l/m 0,0 km/h (0 Bft) N 360 0 min 0,000 mm 0 W/m 17,4 C 20,0 C 1,6 km/h (1 Bft) 100 %
24.06.2016 01:30 19,8 C 19,8 C 20,0 C 86 % 1015,6 hPa 0,0 l/m 0,0 km/h (0 Bft) N 360 0 min 0,000 mm 0 W/m 17,4 C 19,8 C 1,6 km/h (1 Bft) 100 %
24.06.2016 01:40 19,6 C 19,5 C 19,8 C 87 % 1015,5 hPa 0,0 l/m 0,0 km/h (0 Bft) N 0 0 min 0,000 mm 0 W/m 17,4 C 19,6 C 0,0 km/h (0 Bft) 100 %
24.06.2016 01:50 19,3 C 19,3 C 19,5 C 87 % 1015,5 hPa 0,0 l/m 0,0 km/h (0 Bft) N 0 0 min 0,000 mm 0 W/m 17,1 C 19,3 C 0,0 km/h (0 Bft) 100 %
24.06.2016 02:00 19,1 C 19,1 C 19,3 C 88 % 1015,4 hPa 0,0 l/m 0,0 km/h (0 Bft) N 0 0 min 0,025 mm 0 W/m 17,1 C 19,1 C 0,0 km/h (0 Bft) 100 %
24.06.2016 02:10 18,9 C 18,9 C 19,1 C 88 % 1015,5 hPa 0,0 l/m 0,0 km/h (0 Bft) N 360 0 min 0,000 mm 0 W/m 16,9 C 18,9 C 1,6 km/h (1 Bft) 100 %
24.06.2016 02:20 18,7 C 18,7 C 18,9 C 89 % 1015,6 hPa 0,0 l/m 0,0 km/h (0 Bft) N 360 0 min 0,000 mm 0 W/m 16,8 C 18,7 C 1,6 km/h (1 Bft) 100 %
24.06.2016 02:30 18,6 C 18,6 C 18,7 C 89 % 1015,6 hPa 0,0 l/m 0,0 km/h (0 Bft) N 360 0 min 0,000 mm 0 W/m 16,7 C 18,6 C 1,6 km/h (1 Bft) 100 %
24.06.2016 02:40 18,4 C 18,4 C 18,6 C 89 % 1015,5 hPa 0,0 l/m 0,0 km/h (0 Bft) N 0 0 min 0,000 mm 0 W/m 16,6 C 18,4 C 0,0 km/h (0 Bft) 100 %
24.06.2016 02:50 18,3 C 18,3 C 18,4 C 89 % 1015,5 hPa 0,0 l/m 0,0 km/h (0 Bft) N 0 0 min 0,000 mm 0 W/m 16,5 C 18,3 C 0,0 km/h (0 Bft) 100 %
24.06.2016 03:00 18,2 C 18,2 C 18,3 C 89 % 1015,5 hPa 0,0 l/m 0,0 km/h (0 Bft) N 0 0 min 0,000 mm 0 W/m 16,4 C 18,2 C 0,0 km/h (0 Bft) 100 %
24.06.2016 03:10 18,1 C 18,1 C 18,2 C 89 % 1015,6 hPa 0,0 l/m 0,0 km/h (0 Bft) N 360 0 min 0,000 mm 0 W/m 16,3 C 18,1 C 1,6 km/h (1 Bft) 100 %
24.06.2016 03:20 18,0 C 17,9 C 18,1 C 90 % 1015,6 hPa 0,0 l/m 0,0 km/h (0 Bft) N 0 0 min 0,000 mm 0 W/m 16,3 C 18,0 C 0,0 km/h (0 Bft) 100 %
24.06.2016 03:30 17,8 C 17,8 C 18,0 C 89 % 1015,5 hPa 0,0 l/m 0,0 km/h (0 Bft) N 0 0 min 0,000 mm 0 W/m 16,0 C 17,8 C 0,0 km/h (0 Bft) 100 %
24.06.2016 03:40 17,7 C 17,7 C 17,8 C 90 % 1015,5 hPa 0,0 l/m 0,0 km/h (0 Bft) N 0 0 min 0,000 mm 0 W/m 16,0 C 17,7 C 0,0 km/h (0 Bft) 100 %
24.06.2016 03:50 17,6 C 17,6 C 17,7 C 90 % 1015,5 hPa 0,0 l/m 0,0 km/h (0 Bft) N 360 0 min 0,000 mm 0 W/m 15,9 C 17,6 C 1,6 km/h (1 Bft) 100 %
24.06.2016 04:00 17,6 C 17,6 C 17,6 C 90 % 1015,4 hPa 0,0 l/m 0,0 km/h (0 Bft) N 0 0 min 0,000 mm 0 W/m 15,9 C 17,6 C 0,0 km/h (0 Bft) 100 %
24.06.2016 04:10 17,4 C 17,4 C 17,6 C 90 % 1015,3 hPa 0,0 l/m 0,0 km/h (0 Bft) N 0 0 min 0,000 mm 0 W/m 15,7 C 17,4 C 0,0 km/h (0 Bft) 100 %
24.06.2016 04:20 17,3 C 17,3 C 17,4 C 90 % 1015,2 hPa 0,0 l/m 0,0 km/h (0 Bft) N 0 0 min 0,000 mm 0 W/m 15,6 C 17,3 C 0,0 km/h (0 Bft) 100 %
24.06.2016 04:30 17,3 C 17,3 C 17,3 C 90 % 1015,2 hPa 0,0 l/m 0,0 km/h (0 Bft) N 0 0 min 0,000 mm 0 W/m 15,6 C 17,3 C 0,0 km/h (0 Bft) 100 %
24.06.2016 04:40 17,2 C 17,2 C 17,3 C 90 % 1015,3 hPa 0,0 l/m 0,0 km/h (0 Bft) N 0 0 min 0,000 mm 0 W/m 15,5 C 17,2 C 0,0 km/h (0 Bft) 100 %
24.06.2016 04:50 17,1 C 17,1 C 17,2 C 90 % 1015,3 hPa 0,0 l/m 0,0 km/h (0 Bft) N 0 0 min 0,000 mm 0 W/m 15,4 C 17,1 C 0,0 km/h (0 Bft) 100 %
24.06.2016 05:00 17,0 C 17,0 C 17,1 C 90 % 1015,2 hPa 0,0 l/m 0,0 km/h (0 Bft) N 0 0 min 0,000 mm 0 W/m 15,3 C 17,0 C 0,0 km/h (0 Bft) 100 %
24.06.2016 05:10 16,9 C 16,9 C 17,0 C 90 % 1015,2 hPa 0,0 l/m 0,0 km/h (0 Bft) N 360 0 min 0,000 mm 0 W/m 15,2 C 16,9 C 1,6 km/h (1 Bft) 100 %
24.06.2016 05:20 16,8 C 16,8 C 16,9 C 90 % 1015,0 hPa 0,0 l/m 0,0 km/h (0 Bft) N 0 0 min 0,000 mm 0 W/m 15,1 C 16,8 C 0,0 km/h (0 Bft) 100 %
24.06.2016 05:30 16,8 C 16,8 C 16,8 C 90 % 1015,1 hPa 0,0 l/m 0,0 km/h (0 Bft) N 0 0 min 0,000 mm 5 W/m 15,1 C 16,8 C 0,0 km/h (0 Bft) 100 %
24.06.2016 05:40 16,7 C 16,7 C 16,8 C 90 % 1015,1 hPa 0,0 l/m 0,0 km/h (0 Bft) N 0 0 min 0,000 mm 9 W/m 15,0 C 16,7 C 0,0 km/h (0 Bft) 100 %
24.06.2016 05:50 16,7 C 16,7 C 16,7 C 90 % 1015,1 hPa 0,0 l/m 0,0 km/h (0 Bft) N 360 0 min 0,000 mm 11 W/m 15,0 C 16,7 C 1,6 km/h (1 Bft) 100 %
24.06.2016 06:00 16,7 C 16,7 C 16,7 C 90 % 1015,1 hPa 0,0 l/m 0,0 km/h (0 Bft) N 0 0 min 0,000 mm 12 W/m 15,0 C 16,7 C 0,0 km/h (0 Bft) 100 %
24.06.2016 06:10 16,7 C 16,7 C 16,8 C 90 % 1015,1 hPa 0,0 l/m 0,0 km/h (0 Bft) N 0 0 min 0,000 mm 14 W/m 15,0 C 16,7 C 0,0 km/h (0 Bft) 100 %
24.06.2016 06:20 16,8 C 16,7 C 16,8 C 90 % 1015,3 hPa 0,0 l/m 0,0 km/h (0 Bft) N 0 0 min 0,000 mm 16 W/m 15,1 C 16,8 C 0,0 km/h (0 Bft) 100 %
24.06.2016 06:30 16,9 C 16,8 C 16,9 C 91 % 1015,2 hPa 0,0 l/m 0,0 km/h (0 Bft) N 360 0 min 0,000 mm 18 W/m 15,4 C 16,9 C 1,6 km/h (1 Bft) 100 %
24.06.2016 06:40 16,9 C 16,9 C 16,9 C 91 % 1015,2 hPa 0,0 l/m 0,0 km/h (0 Bft) N 0 0 min 0,000 mm 19 W/m 15,4 C 16,9 C 0,0 km/h (0 Bft) 100 %
24.06.2016 06:50 17,0 C 16,9 C 17,0 C 91 % 1015,3 hPa 0,0 l/m 0,0 km/h (0 Bft) N 0 0 min 0,000 mm 21 W/m 15,5 C 17,0 C 0,0 km/h (0 Bft) 100 %
24.06.2016 07:00 17,2 C 17,0 C 17,2 C 90 % 1015,4 hPa 0,0 l/m 0,0 km/h (0 Bft) N 0 0 min 0,000 mm 23 W/m 15,5 C 17,2 C 0,0 km/h (0 Bft) 100 %
24.06.2016 07:10 17,3 C 17,2 C 17,3 C 91 % 1015,4 hPa 0,0 l/m 0,0 km/h (0 Bft) N 0 0 min 0,000 mm 25 W/m 15,8 C 17,3 C 0,0 km/h (0 Bft) 100 %
24.06.2016 07:20 17,4 C 17,3 C 17,4 C 91 % 1015,4 hPa 0,0 l/m 0,0 km/h (0 Bft) N 0 0 min 0,000 mm 26 W/m 15,9 C 17,4 C 0,0 km/h (0 Bft) 99 %
24.06.2016 07:30 17,6 C 17,4 C 17,6 C 90 % 1015,4 hPa 0,0 l/m 0,0 km/h (0 Bft) N 0 0 min 0,000 mm 28 W/m 15,9 C 17,6 C 0,0 km/h (0 Bft) 100 %
24.06.2016 07:40 17,8 C 17,6 C 17,8 C 91 % 1015,4 hPa 0,0 l/m 0,0 km/h (0 Bft) N 0 0 min 0,000 mm 30 W/m 16,3 C 17,8 C 0,0 km/h (0 Bft) 100 %
24.06.2016 07:50 18,1 C 17,8 C 18,1 C 90 % 1015,3 hPa 0,0 l/m 0,0 km/h (0 Bft) N 0 0 min 0,000 mm 32 W/m 16,4 C 18,1 C 0,0 km/h (0 Bft) 100 %
24.06.2016 08:00 18,3 C 18,1 C 18,3 C 90 % 1015,3 hPa 0,0 l/m 0,0 km/h (0 Bft) N 0 0 min 0,025 mm 35 W/m 16,6 C 18,3 C 0,0 km/h (0 Bft) 100 %
24.06.2016 08:10 18,6 C 18,3 C 18,6 C 91 % 1015,4 hPa 0,0 l/m 0,0 km/h (0 Bft) N 0 0 min 0,000 mm 39 W/m 17,1 C 18,6 C 0,0 km/h (0 Bft) 100 %
24.06.2016 08:20 19,1 C 18,6 C 19,1 C 91 % 1015,5 hPa 0,0 l/m 0,0 km/h (0 Bft) N 0 10 min 0,000 mm 359 W/m 17,6 C 19,1 C 0,0 km/h (0 Bft) 100 %
24.06.2016 08:30 20,3 C 19,1 C 20,3 C 90 % 1015,5 hPa 0,0 l/m 0,0 km/h (0 Bft) N 360 10 min 0,000 mm 390 W/m 18,6 C 20,3 C 1,6 km/h (1 Bft) 100 %
24.06.2016 08:40 21,8 C 20,4 C 21,8 C 87 % 1015,5 hPa 0,0 l/m 0,0 km/h (0 Bft) O-SO 112 10 min 0,000 mm 422 W/m 19,5 C 21,8 C 1,6 km/h (1 Bft) 100 %
24.06.2016 08:50 23,1 C 21,9 C 23,1 C 84 % 1015,5 hPa 0,0 l/m 0,0 km/h (0 Bft) S 180 10 min 0,000 mm 457 W/m 20,2 C 23,1 C 1,6 km/h (1 Bft) 99 %
24.06.2016 09:00 24,0 C 23,1 C 24,0 C 81 % 1015,6 hPa 0,0 l/m 0,0 km/h (0 Bft) S-SW 202 10 min 0,178 mm 489 W/m 20,5 C 24,0 C 1,6 km/h (1 Bft) 100 %
24.06.2016 09:10 24,9 C 24,0 C 24,9 C 75 % 1015,6 hPa 0,0 l/m 0,0 km/h (0 Bft) S-SW 202 10 min 0,000 mm 520 W/m 20,2 C 24,9 C 6,4 km/h (2 Bft) 100 %
24.06.2016 09:20 25,2 C 24,0 C 25,2 C 76 % 1015,5 hPa 0,0 l/m 0,0 km/h (0 Bft) S 183 10 min 0,000 mm 548 W/m 20,7 C 25,2 C 1,6 km/h (1 Bft) 100 %
24.06.2016 09:30 25,6 C 25,2 C 25,6 C 76 % 1015,4 hPa 0,0 l/m 0,0 km/h (0 Bft) S 179 10 min 0,000 mm 541 W/m 21,0 C 25,6 C 1,6 km/h (1 Bft) 100 %
24.06.2016 09:40 25,7 C 25,6 C 25,7 C 76 % 1015,4 hPa 0,0 l/m 0,0 km/h (0 Bft) S-SO 149 10 min 0,000 mm 594 W/m 21,1 C 25,7 C 1,6 km/h (1 Bft) 100 %
24.06.2016 09:50 26,3 C 25,7 C 26,3 C 75 % 1015,4 hPa 0,0 l/m 0,0 km/h (0 Bft) S-SO 159 10 min 0,000 mm 540 W/m 21,5 C 26,3 C 1,6 km/h (1 Bft) 99 %
24.06.2016 10:00 26,9 C 26,3 C 26,9 C 74 % 1015,4 hPa 0,0 l/m 0,0 km/h (0 Bft) S-SO 167 10 min 0,306 mm 554 W/m 21,9 C 26,9 C 1,6 km/h (1 Bft) 98 %
24.06.2016 10:10 27,3 C 26,9 C 27,3 C 73 % 1015,3 hPa 0,0 l/m 0,0 km/h (0 Bft) S-SO 162 10 min 0,000 mm 578 W/m 22,0 C 27,3 C 1,6 km/h (1 Bft) 97 %
24.06.2016 10:20 27,6 C 27,3 C 27,6 C 74 % 1015,4 hPa 0,0 l/m 0,6 km/h (0 Bft) SW 218 10 min 0,000 mm 603 W/m 22,5 C 27,6 C 11,3 km/h (2 Bft) 97 %
24.06.2016 10:30 28,2 C 27,6 C 28,2 C 74 % 1015,3 hPa 0,0 l/m 1,2 km/h (1 Bft) SW 222 10 min 0,000 mm 703 W/m 23,1 C 28,2 C 11,3 km/h (2 Bft) 98 %
24.06.2016 10:40 28,7 C 28,2 C 28,7 C 71 % 1015,3 hPa 0,0 l/m 0,1 km/h (0 Bft) S-SW 211 10 min 0,000 mm 642 W/m 22,9 C 28,7 C 8,0 km/h (2 Bft) 97 %
24.06.2016 10:50 29,2 C 28,7 C 29,2 C 68 % 1015,2 hPa 0,0 l/m 0,5 km/h (0 Bft) S-SW 204 10 min 0,000 mm 671 W/m 22,7 C 29,2 C 9,7 km/h (2 Bft) 98 %
24.06.2016 11:00 29,6 C 29,2 C 29,6 C 64 % 1015,2 hPa 0,0 l/m 0,5 km/h (0 Bft) W-SW 244 10 min 0,432 mm 761 W/m 22,0 C 29,6 C 6,4 km/h (2 Bft) 97 %
24.06.2016 11:10 29,5 C 29,5 C 29,8 C 67 % 1015,2 hPa 0,0 l/m 0,5 km/h (0 Bft) S-SO 159 10 min 0,000 mm 722 W/m 22,7 C 29,5 C 9,7 km/h (2 Bft) 97 %
24.06.2016 11:20 29,5 C 29,4 C 29,6 C 69 % 1015,2 hPa 0,0 l/m 0,5 km/h (0 Bft) S-SW 198 10 min 0,000 mm 800 W/m 23,2 C 29,5 C 8,0 km/h (2 Bft) 97 %
24.06.2016 11:30 29,6 C 29,5 C 29,6 C 68 % 1015,2 hPa 0,0 l/m 0,5 km/h (0 Bft) S-SW 201 10 min 0,000 mm 738 W/m 23,0 C 29,6 C 11,3 km/h (2 Bft) 97 %
24.06.2016 11:40 29,9 C 29,6 C 29,9 C 64 % 1015,2 hPa 0,0 l/m 3,3 km/h (1 Bft) S 183 10 min 0,000 mm 821 W/m 22,3 C 29,9 C 11,3 km/h (2 Bft) 98 %
24.06.2016 11:50 29,9 C 29,8 C 29,9 C 66 % 1015,1 hPa 0,0 l/m 0,6 km/h (0 Bft) S-SW 196 10 min 0,000 mm 780 W/m 22,8 C 29,9 C 11,3 km/h (2 Bft) 97 %
24.06.2016 12:00 30,3 C 29,9 C 30,3 C 66 % 1015,0 hPa 0,0 l/m 2,0 km/h (1 Bft) S-SW 194 10 min 0,508 mm 858 W/m 23,2 C 30,3 C 11,3 km/h (2 Bft) 98 %
24.06.2016 12:10 30,6 C 30,3 C 30,6 C 62 % 1015,0 hPa 0,0 l/m 2,1 km/h (1 Bft) SW 221 10 min 0,000 mm 830 W/m 22,5 C 30,6 C 11,3 km/h (2 Bft) 97 %
24.06.2016 12:20 30,6 C 30,6 C 30,7 C 60 % 1015,0 hPa 0,0 l/m 1,4 km/h (1 Bft) S-SW 196 10 min 0,000 mm 918 W/m 21,9 C 30,6 C 11,3 km/h (2 Bft) 97 %
24.06.2016 12:30 30,9 C 30,6 C 30,9 C 62 % 1014,9 hPa 0,0 l/m 0,3 km/h (0 Bft) W 259 10 min 0,000 mm 826 W/m 22,7 C 30,9 C 6,4 km/h (2 Bft) 98 %
24.06.2016 12:40 31,1 C 30,9 C 31,2 C 57 % 1014,7 hPa 0,0 l/m 0,8 km/h (0 Bft) S-SO 166 10 min 0,000 mm 893 W/m 21,6 C 31,1 C 9,7 km/h (2 Bft) 97 %
24.06.2016 12:50 31,2 C 31,0 C 31,2 C 61 % 1014,7 hPa 0,0 l/m 1,1 km/h (1 Bft) W-SW 258 10 min 0,000 mm 928 W/m 22,8 C 31,2 C 8,0 km/h (2 Bft) 97 %
24.06.2016 13:00 31,3 C 31,2 C 31,3 C 61 % 1014,5 hPa 0,0 l/m 2,0 km/h (1 Bft) W-NW 286 10 min 0,559 mm 831 W/m 22,9 C 31,3 C 14,5 km/h (3 Bft) 98 %
24.06.2016 13:10 31,3 C 31,3 C 31,3 C 64 % 1014,5 hPa 0,0 l/m 0,9 km/h (0 Bft) SW 221 10 min 0,000 mm 847 W/m 23,7 C 31,3 C 11,3 km/h (2 Bft) 99 %
24.06.2016 13:20 31,3 C 31,3 C 31,4 C 57 % 1014,4 hPa 0,0 l/m 1,2 km/h (1 Bft) W-NW 302 10 min 0,000 mm 812 W/m 21,7 C 31,3 C 11,3 km/h (2 Bft) 99 %
24.06.2016 13:30 31,1 C 31,1 C 31,3 C 62 % 1014,5 hPa 0,0 l/m 1,7 km/h (1 Bft) W-SW 258 10 min 0,000 mm 824 W/m 22,9 C 31,1 C 11,3 km/h (2 Bft) 100 %
24.06.2016 13:40 31,5 C 31,1 C 31,5 C 60 % 1014,5 hPa 0,0 l/m 3,2 km/h (1 Bft) SW 231 10 min 0,000 mm 819 W/m 22,8 C 31,5 C 14,5 km/h (3 Bft) 99 %
24.06.2016 13:50 31,7 C 31,5 C 31,7 C 57 % 1014,3 hPa 0,0 l/m 3,4 km/h (1 Bft) W-NW 298 10 min 0,000 mm 919 W/m 22,1 C 31,7 C 11,3 km/h (2 Bft) 100 %
24.06.2016 14:00 31,8 C 31,7 C 31,9 C 55 % 1014,2 hPa 0,0 l/m 1,7 km/h (1 Bft) SW 222 10 min 0,559 mm 376 W/m 21,6 C 31,8 C 9,7 km/h (2 Bft) 100 %
24.06.2016 14:10 31,6 C 31,6 C 31,8 C 60 % 1014,2 hPa 0,0 l/m 0,3 km/h (0 Bft) W-SW 238 10 min 0,000 mm 366 W/m 22,9 C 31,6 C 6,4 km/h (2 Bft) 100 %
24.06.2016 14:20 31,5 C 31,5 C 31,6 C 59 % 1014,1 hPa 0,0 l/m 0,7 km/h (0 Bft) W-SW 238 10 min 0,000 mm 803 W/m 22,5 C 31,5 C 8,0 km/h (2 Bft) 100 %
24.06.2016 14:30 31,7 C 31,5 C 31,7 C 60 % 1014,0 hPa 0,0 l/m 1,7 km/h (1 Bft) S-SW 207 10 min 0,000 mm 782 W/m 23,0 C 31,7 C 9,7 km/h (2 Bft) 100 %
24.06.2016 14:40 31,5 C 31,5 C 31,7 C 59 % 1013,9 hPa 0,0 l/m 3,4 km/h (1 Bft) S-SW 213 10 min 0,000 mm 856 W/m 22,5 C 31,5 C 16,1 km/h (3 Bft) 100 %
24.06.2016 14:50 31,6 C 31,4 C 31,6 C 56 % 1013,8 hPa 0,0 l/m 0,9 km/h (0 Bft) NW 320 10 min 0,000 mm 788 W/m 21,7 C 31,6 C 11,3 km/h (2 Bft) 100 %
24.06.2016 15:00 31,6 C 31,5 C 31,6 C 56 % 1013,7 hPa 0,0 l/m 2,7 km/h (1 Bft) W 264 10 min 0,508 mm 772 W/m 21,7 C 31,6 C 16,1 km/h (3 Bft) 100 %
24.06.2016 15:10 32,0 C 31,6 C 32,0 C 54 % 1013,8 hPa 0,0 l/m 3,0 km/h (1 Bft) W-NW 284 10 min 0,000 mm 752 W/m 21,5 C 32,0 C 14,5 km/h (3 Bft) 100 %
24.06.2016 15:20 31,8 C 31,8 C 32,1 C 58 % 1013,8 hPa 0,0 l/m 1,8 km/h (1 Bft) S-SW 208 10 min 0,000 mm 738 W/m 22,5 C 31,8 C 8,0 km/h (2 Bft) 100 %
24.06.2016 15:30 31,9 C 31,8 C 31,9 C 56 % 1013,6 hPa 0,0 l/m 3,1 km/h (1 Bft) W 276 10 min 0,000 mm 728 W/m 22,0 C 31,9 C 16,1 km/h (3 Bft) 100 %
24.06.2016 15:40 32,1 C 31,9 C 32,1 C 56 % 1013,5 hPa 0,0 l/m 1,5 km/h (1 Bft) S-SW 211 10 min 0,000 mm 707 W/m 22,2 C 32,1 C 12,9 km/h (3 Bft) 100 %
24.06.2016 15:50 32,1 C 32,1 C 32,1 C 52 % 1013,4 hPa 0,0 l/m 3,6 km/h (1 Bft) NW 305 10 min 0,000 mm 710 W/m 21,0 C 32,1 C 14,5 km/h (3 Bft) 100 %
24.06.2016 16:00 32,2 C 32,1 C 32,2 C 54 % 1013,4 hPa 0,0 l/m 4,9 km/h (1 Bft) W 262 10 min 0,508 mm 719 W/m 21,7 C 32,2 C 17,7 km/h (3 Bft) 100 %
24.06.2016 16:10 32,2 C 32,2 C 32,3 C 50 % 1013,3 hPa 0,0 l/m 3,1 km/h (1 Bft) W-NW 285 10 min 0,000 mm 647 W/m 20,4 C 32,2 C 16,1 km/h (3 Bft) 100 %
24.06.2016 16:20 32,1 C 32,1 C 32,2 C 53 % 1013,1 hPa 0,0 l/m 3,4 km/h (1 Bft) W 269 10 min 0,000 mm 315 W/m 21,3 C 32,1 C 11,3 km/h (2 Bft) 100 %
24.06.2016 16:30 32,1 C 32,1 C 32,1 C 55 % 1012,8 hPa 0,0 l/m 4,2 km/h (1 Bft) W-SW 242 10 min 0,000 mm 313 W/m 21,9 C 32,1 C 14,5 km/h (3 Bft) 99 %
24.06.2016 16:40 32,1 C 32,1 C 32,1 C 52 % 1012,8 hPa 0,0 l/m 4,3 km/h (1 Bft) W-SW 247 0 min 0,000 mm 98 W/m 21,0 C 32,1 C 14,5 km/h (3 Bft) 100 %
24.06.2016 16:50 31,9 C 31,8 C 32,1 C 53 % 1012,7 hPa 0,0 l/m 3,5 km/h (1 Bft) W-NW 297 0 min 0,000 mm 47 W/m 21,1 C 31,9 C 14,5 km/h (3 Bft) 100 %
24.06.2016 17:00 31,9 C 31,8 C 31,9 C 51 % 1012,7 hPa 0,0 l/m 3,5 km/h (1 Bft) W 262 0 min 0,228 mm 58 W/m 20,5 C 31,9 C 14,5 km/h (3 Bft) 100 %
24.06.2016 17:10 31,9 C 31,8 C 31,9 C 50 % 1012,7 hPa 0,0 l/m 5,3 km/h (1 Bft) W-SW 245 0 min 0,000 mm 81 W/m 20,2 C 31,9 C 17,7 km/h (3 Bft) 100 %
24.06.2016 17:20 31,8 C 31,8 C 31,9 C 49 % 1012,7 hPa 0,0 l/m 1,7 km/h (1 Bft) W-NW 292 0 min 0,000 mm 33 W/m 19,7 C 31,8 C 9,7 km/h (2 Bft) 100 %
24.06.2016 17:30 31,7 C 31,6 C 31,8 C 50 % 1012,8 hPa 0,0 l/m 1,8 km/h (1 Bft) W 261 0 min 0,000 mm 76 W/m 20,0 C 31,7 C 14,5 km/h (3 Bft) 100 %
24.06.2016 17:40 31,7 C 31,7 C 31,7 C 50 % 1012,7 hPa 0,0 l/m 2,0 km/h (1 Bft) W-SW 256 0 min 0,000 mm 46 W/m 20,0 C 31,7 C 11,3 km/h (2 Bft) 100 %
24.06.2016 17:50 31,7 C 31,6 C 31,7 C 53 % 1012,7 hPa 0,0 l/m 1,0 km/h (0 Bft) W 275 0 min 0,000 mm 76 W/m 20,9 C 31,7 C 9,7 km/h (2 Bft) 100 %
24.06.2016 18:00 31,6 C 31,6 C 31,7 C 49 % 1012,4 hPa 0,0 l/m 0,1 km/h (0 Bft) W-NW 284 0 min 0,076 mm 42 W/m 19,6 C 31,6 C 3,2 km/h (1 Bft) 100 %
24.06.2016 18:10 31,3 C 31,3 C 31,6 C 52 % 1012,5 hPa 0,0 l/m 1,7 km/h (1 Bft) W 273 0 min 0,000 mm 47 W/m 20,2 C 31,3 C 8,0 km/h (2 Bft) 100 %
24.06.2016 18:20 31,3 C 31,3 C 31,3 C 53 % 1012,5 hPa 0,0 l/m 0,3 km/h (0 Bft) W-NW 302 0 min 0,000 mm 72 W/m 20,5 C 31,3 C 8,0 km/h (2 Bft) 98 %
24.06.2016 18:30 31,3 C 31,3 C 31,3 C 56 % 1012,4 hPa 0,0 l/m 1,6 km/h (1 Bft) W-NW 286 0 min 0,000 mm 58 W/m 21,4 C 31,3 C 14,5 km/h (3 Bft) 97 %
24.06.2016 18:40 31,3 C 31,3 C 31,3 C 56 % 1012,4 hPa 0,0 l/m 0,7 km/h (0 Bft) W-NW 289 0 min 0,000 mm 46 W/m 21,4 C 31,3 C 8,0 km/h (2 Bft) 98 %
24.06.2016 18:50 31,0 C 31,0 C 31,3 C 59 % 1012,3 hPa 0,0 l/m 0,5 km/h (0 Bft) W-NW 290 0 min 0,000 mm 76 W/m 22,0 C 31,0 C 6,4 km/h (2 Bft) 97 %
24.06.2016 19:00 30,7 C 30,7 C 31,0 C 59 % 1012,3 hPa 0,0 l/m 0,6 km/h (0 Bft) NW 304 0 min 0,051 mm 113 W/m 21,7 C 30,7 C 4,8 km/h (1 Bft) 98 %
24.06.2016 19:10 30,6 C 30,6 C 30,7 C 59 % 1012,3 hPa 0,0 l/m 3,3 km/h (1 Bft) W-NW 303 10 min 0,000 mm 176 W/m 21,6 C 30,6 C 11,3 km/h (2 Bft) 97 %
24.06.2016 19:20 30,3 C 30,3 C 30,6 C 60 % 1012,4 hPa 0,0 l/m 4,4 km/h (1 Bft) NW 318 10 min 0,000 mm 214 W/m 21,6 C 30,3 C 16,1 km/h (3 Bft) 97 %
24.06.2016 19:30 30,2 C 30,2 C 30,3 C 61 % 1012,4 hPa 0,0 l/m 7,9 km/h (2 Bft) NW 313 10 min 0,000 mm 153 W/m 21,8 C 30,1 C 17,7 km/h (3 Bft) 98 %
24.06.2016 19:40 29,9 C 29,9 C 30,2 C 63 % 1012,5 hPa 0,0 l/m 7,5 km/h (2 Bft) W-NW 302 0 min 0,000 mm 127 W/m 22,1 C 29,8 C 20,9 km/h (4 Bft) 97 %
24.06.2016 19:50 29,5 C 29,5 C 29,9 C 64 % 1012,6 hPa 0,0 l/m 7,6 km/h (2 Bft) NW 316 0 min 0,000 mm 11 W/m 22,0 C 29,4 C 22,5 km/h (4 Bft) 97 %
24.06.2016 20:00 29,0 C 29,0 C 29,5 C 66 % 1012,7 hPa 0,0 l/m 4,4 km/h (1 Bft) NW 325 0 min 0,127 mm 21 W/m 22,0 C 29,0 C 19,3 km/h (3 Bft) 97 %
24.06.2016 20:10 28,6 C 28,6 C 29,0 C 66 % 1012,5 hPa 0,0 l/m 7,6 km/h (2 Bft) N-NW 346 0 min 0,000 mm 74 W/m 21,6 C 28,4 C 22,5 km/h (4 Bft) 97 %
24.06.2016 20:20 28,1 C 28,1 C 28,6 C 67 % 1012,4 hPa 0,0 l/m 4,2 km/h (1 Bft) N-NW 329 0 min 0,000 mm 40 W/m 21,4 C 28,1 C 16,1 km/h (3 Bft) 97 %
24.06.2016 20:30 27,7 C 27,7 C 28,1 C 69 % 1012,5 hPa 0,0 l/m 3,5 km/h (1 Bft) N-NW 333 0 min 0,000 mm 69 W/m 21,5 C 27,7 C 14,5 km/h (3 Bft) 97 %
24.06.2016 20:40 27,2 C 27,2 C 27,7 C 69 % 1012,6 hPa 0,0 l/m 2,9 km/h (1 Bft) NW 318 0 min 0,000 mm 11 W/m 21,0 C 27,2 C 9,7 km/h (2 Bft) 98 %
24.06.2016 20:50 26,7 C 26,7 C 27,2 C 67 % 1012,7 hPa 0,0 l/m 5,9 km/h (2 Bft) NW 323 0 min 0,000 mm 7 W/m 20,0 C 26,7 C 20,9 km/h (4 Bft) 97 %
24.06.2016 21:00 26,2 C 26,2 C 26,7 C 69 % 1012,9 hPa 0,0 l/m 5,9 km/h (2 Bft) N-NW 334 0 min 0,051 mm 0 W/m 20,0 C 26,2 C 19,3 km/h (3 Bft) 97 %
24.06.2016 21:10 25,7 C 25,7 C 26,2 C 73 % 1012,6 hPa 0,0 l/m 0,0 km/h (0 Bft) NW 315 0 min 0,000 mm 11 W/m 20,5 C 25,7 C 6,4 km/h (2 Bft) 100 %
24.06.2016 21:20 25,1 C 25,1 C 25,7 C 74 % 1012,6 hPa 0,0 l/m 0,0 km/h (0 Bft) N 0 0 min 0,000 mm 11 W/m 20,1 C 25,1 C 0,0 km/h (0 Bft) 100 %
24.06.2016 21:30 24,6 C 24,6 C 25,1 C 75 % 1012,8 hPa 0,0 l/m 3,2 km/h (1 Bft) N-NW 337 0 min 0,000 mm 7 W/m 19,9 C 24,6 C 11,3 km/h (2 Bft) 100 %
24.06.2016 21:40 24,3 C 24,3 C 24,6 C 77 % 1012,9 hPa 0,0 l/m 0,0 km/h (0 Bft) NW 315 0 min 0,000 mm 5 W/m 20,0 C 24,3 C 6,4 km/h (2 Bft) 99 %
24.06.2016 21:50 23,9 C 23,9 C 24,2 C 79 % 1012,9 hPa 0,0 l/m 0,0 km/h (0 Bft) N-NW 337 0 min 0,000 mm 0 W/m 20,0 C 23,9 C 6,4 km/h (2 Bft) 100 %
24.06.2016 22:00 23,8 C 23,8 C 23,9 C 80 % 1012,7 hPa 0,0 l/m 0,0 km/h (0 Bft) NW 315 0 min 0,000 mm 0 W/m 20,1 C 23,8 C 8,0 km/h (2 Bft) 100 %
24.06.2016 22:10 23,6 C 23,6 C 23,8 C 81 % 1012,6 hPa 0,0 l/m 1,6 km/h (1 Bft) N-NW 337 0 min 0,000 mm 0 W/m 20,1 C 23,6 C 11,3 km/h (2 Bft) 100 %
24.06.2016 22:20 23,6 C 23,6 C 23,6 C 82 % 1012,6 hPa 0,0 l/m 0,0 km/h (0 Bft) N-NW 337 0 min 0,000 mm 0 W/m 20,3 C 23,6 C 8,0 km/h (2 Bft) 100 %
24.06.2016 22:30 23,5 C 23,5 C 23,6 C 83 % 1012,5 hPa 0,0 l/m 1,6 km/h (1 Bft) N-NW 337 0 min 0,000 mm 0 W/m 20,4 C 23,5 C 6,4 km/h (2 Bft) 100 %
24.06.2016 22:40 23,4 C 23,4 C 23,5 C 83 % 1012,7 hPa 0,0 l/m 0,0 km/h (0 Bft) N-NW 337 0 min 0,000 mm 0 W/m 20,3 C 23,4 C 8,0 km/h (2 Bft) 100 %
24.06.2016 22:50 23,4 C 23,4 C 23,4 C 84 % 1012,9 hPa 0,0 l/m 1,6 km/h (1 Bft) N-NW 337 0 min 0,000 mm 0 W/m 20,5 C 23,4 C 9,7 km/h (2 Bft) 100 %
24.06.2016 23:00 23,4 C 23,3 C 23,4 C 84 % 1013,0 hPa 0,0 l/m 0,0 km/h (0 Bft) N-NW 337 0 min 0,025 mm 0 W/m 20,5 C 23,4 C 6,4 km/h (2 Bft) 100 %
24.06.2016 23:10 23,2 C 23,2 C 23,3 C 85 % 1012,8 hPa 0,0 l/m 0,0 km/h (0 Bft) N-NW 337 0 min 0,000 mm 0 W/m 20,5 C 23,2 C 1,6 km/h (1 Bft) 100 %
24.06.2016 23:20 23,1 C 23,1 C 23,2 C 85 % 1012,5 hPa 0,0 l/m 0,0 km/h (0 Bft) N 0 0 min 0,000 mm 0 W/m 20,4 C 23,1 C 0,0 km/h (0 Bft) 100 %
24.06.2016 23:30 23,0 C 23,0 C 23,1 C 85 % 1013,0 hPa 0,0 l/m 0,0 km/h (0 Bft) N-NW 337 0 min 0,000 mm 0 W/m 20,3 C 23,0 C 1,6 km/h (1 Bft) 100 %
24.06.2016 23:40 22,9 C 22,9 C 23,0 C 86 % 1012,9 hPa 0,0 l/m 1,6 km/h (1 Bft) N-NW 337 0 min 0,000 mm 0 W/m 20,4 C 22,9 C 8,0 km/h (2 Bft) 100 %
24.06.2016 23:50 22,8 C 22,8 C 22,9 C 86 % 1012,9 hPa 0,0 l/m 0,0 km/h (0 Bft) N 0 0 min 0,000 mm 0 W/m 20,3 C 22,8 C 0,0 km/h (0 Bft) 100 %
_ Min-Zeit 05:40 05:40 05:50 17:20 18:50 - 00:00 - - - - - 05:40 05:40 00:00 00:50
Minimum _ 16,7 C 16,7 C 16,7 C 49 % 1012,3 hPa - 0,0 km/h (0 Bft) - - - - - 15,0 C 16,7 C 0,0 km/h (0 Bft) 89 %
_ Max-Zeit 16:10 16:10 16:10 06:30 01:20 00:00 19:30 - - 08:20 13:00 12:50 13:10 16:00 19:50 00:00
Maximum _ 32,3 C 32,2 C 32,3 C 91 % 1015,7 hPa 0,0 l/m 7,9 km/h
NW (2 Bft)
- - 10 min 0,559 mm 928 W/m 23,7 C 32,2 C 22,5 km/h
NW (4 Bft)
100 %
Durchschnitt _ 25,0 C 24,9 C 25,2 C 74 % 1014,3 hPa #0,0 l/m 1,2 km/h (1 Bft) W-NW - #8:50 h #4,216 mm 373 W/m 19,6 C 25,0 C 6,6 km/h (2 Bft) 99 %
PRIVATE WETTERSTATION BILLIGHEIM-ALLFELD - www.neckar-odenwald-wetter.de - Holger Sonntag